Home > Weather > Horn > Past weeks

Flag for Austria Past Weather in Horn, Lower Austria, Austria — Yesterday and Last 2 Weeks

Now
67 °F

Mild.


Feels Like: 67 °F
Forecast: 62 / 84 °F
Wind: 1 mph from West

Location: Retz

Current Time: Jul 26, 2016 at 4:42:55 AM

Latest Report: Jul 26, 2016 at 4:00 AM


Visibility: N/A

Pressure: 30.01 "Hg

Humidity: 86%

Dew Point: 63 °F

Location of HornLocation

Past Weather in Horn — Graph

°F

Horn Temperature Yesterday

Maximum temperature yesterday: 83 °F (at 4:00 PM)
Minimum temperature yesterday: 64 °F (at 5:00 AM)
Average temperature yesterday: 73 °F

High & Low Weather Summary for the Past Weeks

 TemperatureHumidityPressure
High93 °F (Jul 11, 4:00 PM)98% (Jul 22, 2:00 AM)30.23 "Hg (Jul 22, 2:00 AM)
Low52 °F (Jul 15, 5:00 AM)36% (Jul 11, 3:00 PM)29.74 "Hg (Jul 14, 9:00 AM)
Average69 °F72%30.00 "Hg
* Reported Jul 11 3:00 AM — Jul 26 3:00 AM, Horn, Weather by CustomWeather, © 2016

Note: Actual official high and low records may vary slightly from our data, if they occured in-between our weather recording intervals... More about our weather records

Advertising

Horn Weather History for the Previous 24 Hours

Scroll right to see more
 ConditionsComfort  
Time TempWeatherWind HumidityBarometerVisibility
3:00 AM
Tue, Jul 26
69 °FMild.2 mph85%30.01 "HgN/A
2:00 AM69 °FMild.2 mph86%30.00 "HgN/A
1:00 AM70 °FMild.2 mph84%30.01 "HgN/A
12:00 AM72 °FMild.5 mph78%29.99 "HgN/A
11:00 PM
Mon, Jul 25
71 °FMild.2 mph80%30.01 "HgN/A
10:00 PM74 °FMild.7 mph70%29.98 "HgN/A
9:00 PM74 °FMild.1 mph73%29.97 "HgN/A
8:00 PM76 °FPartly sunny.1 mph70%29.97 "Hg11 mi
7:00 PM77 °FMild.2 mph67%29.96 "HgN/A
6:00 PM78 °FWarm.3 mph62%29.95 "HgN/A
5:00 PM82 °FWarm.5 mph57%29.93 "HgN/A
4:00 PM83 °FWarm.2 mph49%29.94 "HgN/A
3:00 PM81 °FWarm.1 mph56%29.96 "HgN/A
2:00 PM83 °FPartly sunny.2 mph53%29.96 "Hg14 mi
1:00 PM80 °FWarm.1 mph53%29.97 "HgN/A
12:00 PM80 °FWarm.2 mph56%29.99 "HgN/A
11:00 AM77 °FWarm.1 mph63%30.01 "HgN/A
10:00 AM75 °FMild.3 mph67%30.01 "HgN/A
9:00 AM73 °FMild.1 mph74%30.01 "HgN/A
8:00 AM70 °FPassing clouds.1 mph79%30.02 "Hg7 mi
7:00 AM65 °FPassing clouds.1 mph88%30.03 "Hg6 mi
6:00 AM64 °FMild.3 mph90%30.03 "HgN/A
5:00 AM64 °FMild.1 mph91%30.04 "HgN/A
4:00 AM65 °FMild.1 mph89%30.04 "HgN/A
Weather by CustomWeather, © 2016

See weather overviewHow to use our weather pages